星链-34678 (STARLINK-34678)

导读

STARLINK-34678是美国SpaceX公司星链星座的第二代低轨卫星,于2025年9月3日发射入轨,服务全球卫星互联网。星链作为全球规模最大的商用低轨星座,截至发射时已部署超9400颗卫星,单颗容量为初代的四倍,通过相控阵技术与星间激光链路,为偏远地区、移动场景提供高速低延迟宽带通信,同时也可支持军事战术通信需求,持续拓展全球网络覆盖能力。

基本信息
目录编号:
65443
目录名称:
STARLINK-34678
国际标识:
2025-194K
轨道中心:
EARTH
卫星名称:
星链-34678
卫星全名:
星链-34678 (STARLINK-34678)
卫星状态:
在轨 (已飞行283 天)
发射日期:
2025-09-03 UTC
国别 :
美国 (US)
星等 :
--
轨道信息
数据来源 国际轨道数据 AOE轨道数据
星历时间 2026-06-13T12:16:23+0800
13小时前
查看轨道信息
2026-06-10T05:00:00+0800
3天前
查看轨道信息
半长轴 6927.603km 6927.672km
偏心率 0.0002567 0.0002547
轨道倾角 97.366° 97.384°
近地点辐角 83.822° 87.764°
升交点赤经 17.610° 14.454°
平近点角 276.331° 20.018°
近地点 547.687km 547.77km
远地点 551.245km 551.3km
周期 95.639分钟 95.640分钟
每日圈数 15.056649 15.056423
详细信息
固有亮度:
5
最大亮度:
2.5
卫星平台:
Starlink V1.0
覆盖范围:
全球
运营商:
太空探索技术公司
运营商所在国:
美国
制造商(研发单位):
太空探索技术公司
制造商所在国:
美国
使用方式:
暂无
卫星简介
Starlink 计划是 SpaceX 推出的全球卫星互联网项目,通过发射低轨道卫星,为全球尤其是偏远地区提供高速、低延迟的互联网服务。自 2019 年起,Starlink 已部署数千颗卫星,旨在缩小全球数字鸿沟,推动互联网普及。该项目还为军事、航空等行业提供通信支持,带来广泛经济效益。
2D轨道图
3D轨道图
轨道高度分析图
轨道倾角分析图
轨道综合分析图
查看轨道综合分析图